This is the latest recevied weather packets stored in our database for station/object DB0BGL. If no packets are shown the sender has not sent any weather packets the latest 10 day(s).
| Time | Temp. | Humidity | Pressure | Rain* | Wind** | Luminosity | Snow |
|---|---|---|---|---|---|---|---|
| 1777788355 | 20.56° C | 24% | 0 hPa | 0 mm | - | - | - |
| 1777787755 | 20.56° C | 25% | 0 hPa | 0 mm | - | - | - |
| 1777787154 | 20° C | 24% | 0 hPa | 0 mm | - | - | - |
| 1777786554 | 19.44° C | 26% | 0 hPa | 0 mm | - | - | - |
| 1777785953 | 17.78° C | 28% | 0 hPa | 0 mm | - | - | - |
| 1777785353 | 16.67° C | 29% | 0 hPa | 0 mm | - | - | - |
| 1777784752 | 15.56° C | 31% | 0 hPa | 0 mm | - | - | - |
| 1777784151 | 14.44° C | 32% | 0 hPa | 0 mm | - | - | - |
| 1777783551 | 12.78° C | 35% | 0 hPa | 0 mm | - | - | - |
| 1777782950 | 11.11° C | 38% | 0 hPa | 0 mm | - | - | - |
| 1777724048 | 18.89° C | 27% | 0 hPa | 0 mm | - | - | - |
| 1777723447 | 17.78° C | 29% | 0 hPa | 0 mm | - | - | - |
| 1777722246 | 16.11° C | 31% | 0 hPa | 0 mm | - | - | - |
| 1777721647 | 16.11° C | 30% | 0 hPa | 0 mm | - | - | - |
| 1777721045 | 16.11° C | 31% | 0 hPa | 0 mm | - | - | - |
| 1777720444 | 15° C | 33% | 0 hPa | 0 mm | - | - | - |
| 1777719844 | 13.89° C | 30% | 0 hPa | 0 mm | - | - | - |
| 1777719243 | 13.33° C | 32% | 0 hPa | 0 mm | - | - | - |
| 1777718719 | 13.33° C | 32% | 0 hPa | 0 mm | - | - | - |
| 1777718643 | 13.33° C | 32% | 0 hPa | 0 mm | - | - | - |
| 1777718042 | 13.89° C | 35% | 0 hPa | 0 mm | - | - | - |
| 1777717442 | 13.89° C | 35% | 0 hPa | 0 mm | - | - | - |
| 1777716841 | 13.89° C | 34% | 0 hPa | 0 mm | - | - | - |
| 1777716240 | 13.89° C | 34% | 0 hPa | 0 mm | - | - | - |
| 1777715640 | 15° C | 33% | 0 hPa | 0 mm | - | - | - |
* Rain latest hour (hover to see other rain measurements)
** Current wind speed in m/s (hover to see current wind gust speed)